Index of /20260426/WXO-DD/model_rdps/10km/06/036
Name Last modified Size Description
Parent Directory -
20260426T06Z_MSC_RDPS_AbsoluteVorticity_IsbL-0250_RLatLon0.09_PT036H.grib2 2026-04-26 08:49 599K
20260426T06Z_MSC_RDPS_AbsoluteVorticity_IsbL-0500_RLatLon0.09_PT036H.grib2 2026-04-26 08:49 693K
20260426T06Z_MSC_RDPS_AbsoluteVorticity_IsbL-0700_RLatLon0.09_PT036H.grib2 2026-04-26 08:49 622K
20260426T06Z_MSC_RDPS_AbsoluteVorticity_IsbL-0850_RLatLon0.09_PT036H.grib2 2026-04-26 08:49 787K
20260426T06Z_MSC_RDPS_AirTemp_AGL-120m_RLatLon0.09_PT036H.grib2 2026-04-26 08:49 384K
20260426T06Z_MSC_RDPS_AirTemp_AGL-2m_RLatLon0.09_PT036H.grib2 2026-04-26 08:49 641K
20260426T06Z_MSC_RDPS_AirTemp_AGL-40m_RLatLon0.09_PT036H.grib2 2026-04-26 08:49 409K
20260426T06Z_MSC_RDPS_AirTemp_AGL-80m_RLatLon0.09_PT036H.grib2 2026-04-26 08:49 404K
20260426T06Z_MSC_RDPS_AirTemp_IsbL-0001_RLatLon0.09_PT036H.grib2 2026-04-26 08:49 284K
20260426T06Z_MSC_RDPS_AirTemp_IsbL-0005_RLatLon0.09_PT036H.grib2 2026-04-26 08:49 293K
20260426T06Z_MSC_RDPS_AirTemp_IsbL-0010_RLatLon0.09_PT036H.grib2 2026-04-26 08:49 307K
20260426T06Z_MSC_RDPS_AirTemp_IsbL-0020_RLatLon0.09_PT036H.grib2 2026-04-26 08:49 323K
20260426T06Z_MSC_RDPS_AirTemp_IsbL-0030_RLatLon0.09_PT036H.grib2 2026-04-26 08:49 340K
20260426T06Z_MSC_RDPS_AirTemp_IsbL-0050_RLatLon0.09_PT036H.grib2 2026-04-26 08:49 319K
20260426T06Z_MSC_RDPS_AirTemp_IsbL-0100_RLatLon0.09_PT036H.grib2 2026-04-26 08:49 420K
20260426T06Z_MSC_RDPS_AirTemp_IsbL-0150_RLatLon0.09_PT036H.grib2 2026-04-26 08:49 415K
20260426T06Z_MSC_RDPS_AirTemp_IsbL-0175_RLatLon0.09_PT036H.grib2 2026-04-26 08:49 407K
20260426T06Z_MSC_RDPS_AirTemp_IsbL-0200_RLatLon0.09_PT036H.grib2 2026-04-26 08:49 414K
20260426T06Z_MSC_RDPS_AirTemp_IsbL-0225_RLatLon0.09_PT036H.grib2 2026-04-26 08:49 415K
20260426T06Z_MSC_RDPS_AirTemp_IsbL-0250_RLatLon0.09_PT036H.grib2 2026-04-26 08:49 421K
20260426T06Z_MSC_RDPS_AirTemp_IsbL-0275_RLatLon0.09_PT036H.grib2 2026-04-26 08:49 402K
20260426T06Z_MSC_RDPS_AirTemp_IsbL-0300_RLatLon0.09_PT036H.grib2 2026-04-26 08:49 408K
20260426T06Z_MSC_RDPS_AirTemp_IsbL-0350_RLatLon0.09_PT036H.grib2 2026-04-26 08:49 417K
20260426T06Z_MSC_RDPS_AirTemp_IsbL-0400_RLatLon0.09_PT036H.grib2 2026-04-26 08:49 418K
20260426T06Z_MSC_RDPS_AirTemp_IsbL-0450_RLatLon0.09_PT036H.grib2 2026-04-26 08:49 425K
20260426T06Z_MSC_RDPS_AirTemp_IsbL-0500_RLatLon0.09_PT036H.grib2 2026-04-26 08:49 403K
20260426T06Z_MSC_RDPS_AirTemp_IsbL-0550_RLatLon0.09_PT036H.grib2 2026-04-26 08:49 422K
20260426T06Z_MSC_RDPS_AirTemp_IsbL-0600_RLatLon0.09_PT036H.grib2 2026-04-26 08:49 438K
20260426T06Z_MSC_RDPS_AirTemp_IsbL-0650_RLatLon0.09_PT036H.grib2 2026-04-26 08:49 457K
20260426T06Z_MSC_RDPS_AirTemp_IsbL-0700_RLatLon0.09_PT036H.grib2 2026-04-26 08:49 483K
20260426T06Z_MSC_RDPS_AirTemp_IsbL-0750_RLatLon0.09_PT036H.grib2 2026-04-26 08:49 417K
20260426T06Z_MSC_RDPS_AirTemp_IsbL-0800_RLatLon0.09_PT036H.grib2 2026-04-26 08:49 466K
20260426T06Z_MSC_RDPS_AirTemp_IsbL-0850_RLatLon0.09_PT036H.grib2 2026-04-26 08:49 513K
20260426T06Z_MSC_RDPS_AirTemp_IsbL-0875_RLatLon0.09_PT036H.grib2 2026-04-26 08:49 528K
20260426T06Z_MSC_RDPS_AirTemp_IsbL-0900_RLatLon0.09_PT036H.grib2 2026-04-26 08:49 533K
20260426T06Z_MSC_RDPS_AirTemp_IsbL-0925_RLatLon0.09_PT036H.grib2 2026-04-26 08:49 542K
20260426T06Z_MSC_RDPS_AirTemp_IsbL-0950_RLatLon0.09_PT036H.grib2 2026-04-26 08:49 545K
20260426T06Z_MSC_RDPS_AirTemp_IsbL-0970_RLatLon0.09_PT036H.grib2 2026-04-26 08:49 543K
20260426T06Z_MSC_RDPS_AirTemp_IsbL-0985_RLatLon0.09_PT036H.grib2 2026-04-26 08:49 539K
20260426T06Z_MSC_RDPS_AirTemp_IsbL-1000_RLatLon0.09_PT036H.grib2 2026-04-26 08:49 522K
20260426T06Z_MSC_RDPS_AirTemp_IsbL-1015_RLatLon0.09_PT036H.grib2 2026-04-26 08:49 519K
20260426T06Z_MSC_RDPS_Albedo_Sfc_RLatLon0.09_PT036H.grib2 2026-04-26 08:49 162K
20260426T06Z_MSC_RDPS_CAPE_Sfc_RLatLon0.09_PT036H.grib2 2026-04-26 08:49 1.8M
20260426T06Z_MSC_RDPS_CIN_Sfc_RLatLon0.09_PT036H.grib2 2026-04-26 08:49 1.1M
20260426T06Z_MSC_RDPS_CloudWater_EAtm_RLatLon0.09_PT036H.grib2 2026-04-26 08:49 220K
20260426T06Z_MSC_RDPS_ConvectivePrecip-Accum_Sfc_RLatLon0.09_PT036H.grib2 2026-04-26 08:49 1.0M
20260426T06Z_MSC_RDPS_DewPointDepression_AGL-2m_RLatLon0.09_PT036H.grib2 2026-04-26 08:49 425K
20260426T06Z_MSC_RDPS_DewPointDepression_IsbL-0001_RLatLon0.09_PT036H.grib2 2026-04-26 08:49 193
20260426T06Z_MSC_RDPS_DewPointDepression_IsbL-0005_RLatLon0.09_PT036H.grib2 2026-04-26 08:49 193
20260426T06Z_MSC_RDPS_DewPointDepression_IsbL-0010_RLatLon0.09_PT036H.grib2 2026-04-26 08:49 193
20260426T06Z_MSC_RDPS_DewPointDepression_IsbL-0020_RLatLon0.09_PT036H.grib2 2026-04-26 08:49 193
20260426T06Z_MSC_RDPS_DewPointDepression_IsbL-0030_RLatLon0.09_PT036H.grib2 2026-04-26 08:49 193
20260426T06Z_MSC_RDPS_DewPointDepression_IsbL-0050_RLatLon0.09_PT036H.grib2 2026-04-26 08:49 89K
20260426T06Z_MSC_RDPS_DewPointDepression_IsbL-0100_RLatLon0.09_PT036H.grib2 2026-04-26 08:49 125K
20260426T06Z_MSC_RDPS_DewPointDepression_IsbL-0150_RLatLon0.09_PT036H.grib2 2026-04-26 08:49 148K
20260426T06Z_MSC_RDPS_DewPointDepression_IsbL-0175_RLatLon0.09_PT036H.grib2 2026-04-26 08:49 181K
20260426T06Z_MSC_RDPS_DewPointDepression_IsbL-0200_RLatLon0.09_PT036H.grib2 2026-04-26 08:49 223K
20260426T06Z_MSC_RDPS_DewPointDepression_IsbL-0225_RLatLon0.09_PT036H.grib2 2026-04-26 08:49 262K
20260426T06Z_MSC_RDPS_DewPointDepression_IsbL-0250_RLatLon0.09_PT036H.grib2 2026-04-26 08:49 294K
20260426T06Z_MSC_RDPS_DewPointDepression_IsbL-0275_RLatLon0.09_PT036H.grib2 2026-04-26 08:49 304K
20260426T06Z_MSC_RDPS_DewPointDepression_IsbL-0300_RLatLon0.09_PT036H.grib2 2026-04-26 08:49 319K
20260426T06Z_MSC_RDPS_DewPointDepression_IsbL-0350_RLatLon0.09_PT036H.grib2 2026-04-26 08:49 323K
20260426T06Z_MSC_RDPS_DewPointDepression_IsbL-0400_RLatLon0.09_PT036H.grib2 2026-04-26 08:49 340K
20260426T06Z_MSC_RDPS_DewPointDepression_IsbL-0450_RLatLon0.09_PT036H.grib2 2026-04-26 08:49 354K
20260426T06Z_MSC_RDPS_DewPointDepression_IsbL-0500_RLatLon0.09_PT036H.grib2 2026-04-26 08:49 358K
20260426T06Z_MSC_RDPS_DewPointDepression_IsbL-0550_RLatLon0.09_PT036H.grib2 2026-04-26 08:49 366K
20260426T06Z_MSC_RDPS_DewPointDepression_IsbL-0600_RLatLon0.09_PT036H.grib2 2026-04-26 08:49 379K
20260426T06Z_MSC_RDPS_DewPointDepression_IsbL-0650_RLatLon0.09_PT036H.grib2 2026-04-26 08:49 388K
20260426T06Z_MSC_RDPS_DewPointDepression_IsbL-0700_RLatLon0.09_PT036H.grib2 2026-04-26 08:49 402K
20260426T06Z_MSC_RDPS_DewPointDepression_IsbL-0750_RLatLon0.09_PT036H.grib2 2026-04-26 08:49 429K
20260426T06Z_MSC_RDPS_DewPointDepression_IsbL-0800_RLatLon0.09_PT036H.grib2 2026-04-26 08:49 465K
20260426T06Z_MSC_RDPS_DewPointDepression_IsbL-0850_RLatLon0.09_PT036H.grib2 2026-04-26 08:49 490K
20260426T06Z_MSC_RDPS_DewPointDepression_IsbL-0875_RLatLon0.09_PT036H.grib2 2026-04-26 08:49 486K
20260426T06Z_MSC_RDPS_DewPointDepression_IsbL-0900_RLatLon0.09_PT036H.grib2 2026-04-26 08:49 474K
20260426T06Z_MSC_RDPS_DewPointDepression_IsbL-0925_RLatLon0.09_PT036H.grib2 2026-04-26 08:49 462K
20260426T06Z_MSC_RDPS_DewPointDepression_IsbL-0950_RLatLon0.09_PT036H.grib2 2026-04-26 08:49 455K
20260426T06Z_MSC_RDPS_DewPointDepression_IsbL-0970_RLatLon0.09_PT036H.grib2 2026-04-26 08:49 446K
20260426T06Z_MSC_RDPS_DewPointDepression_IsbL-0985_RLatLon0.09_PT036H.grib2 2026-04-26 08:49 442K
20260426T06Z_MSC_RDPS_DewPointDepression_IsbL-1000_RLatLon0.09_PT036H.grib2 2026-04-26 08:49 437K
20260426T06Z_MSC_RDPS_DewPointDepression_IsbL-1015_RLatLon0.09_PT036H.grib2 2026-04-26 08:49 431K
20260426T06Z_MSC_RDPS_DewPoint_AGL-2m_RLatLon0.09_PT036H.grib2 2026-04-26 08:49 407K
20260426T06Z_MSC_RDPS_DownwardLongwaveRadiationFlux-Accum_Sfc_RLatLon0.09_PT036H.grib2 2026-04-26 08:49 382K
20260426T06Z_MSC_RDPS_DownwardShortwaveRadiationFlux-Accum_NTAtm_RLatLon0.09_PT036H.grib2 2026-04-26 08:49 89K
20260426T06Z_MSC_RDPS_DownwardShortwaveRadiationFlux-Accum_Sfc_RLatLon0.09_PT036H.grib2 2026-04-26 08:49 567K
20260426T06Z_MSC_RDPS_FreezingRain-Accum12h_Sfc_RLatLon0.09_PT036H.grib2 2026-04-26 08:49 94K
20260426T06Z_MSC_RDPS_FreezingRain-Accum1h_Sfc_RLatLon0.09_PT036H.grib2 2026-04-26 08:49 13K
20260426T06Z_MSC_RDPS_FreezingRain-Accum24h_Sfc_RLatLon0.09_PT036H.grib2 2026-04-26 08:49 102K
20260426T06Z_MSC_RDPS_FreezingRain-Accum3h_Sfc_RLatLon0.09_PT036H.grib2 2026-04-26 08:49 23K
20260426T06Z_MSC_RDPS_FreezingRain-Accum6h_Sfc_RLatLon0.09_PT036H.grib2 2026-04-26 08:49 61K
20260426T06Z_MSC_RDPS_FreezingRain-Accum_Sfc_RLatLon0.09_PT036H.grib2 2026-04-26 08:49 147K
20260426T06Z_MSC_RDPS_GeopotentialHeight_IsbL-0001_RLatLon0.09_PT036H.grib2 2026-04-26 08:49 278K
20260426T06Z_MSC_RDPS_GeopotentialHeight_IsbL-0005_RLatLon0.09_PT036H.grib2 2026-04-26 08:49 314K
20260426T06Z_MSC_RDPS_GeopotentialHeight_IsbL-0010_RLatLon0.09_PT036H.grib2 2026-04-26 08:49 344K
20260426T06Z_MSC_RDPS_GeopotentialHeight_IsbL-0020_RLatLon0.09_PT036H.grib2 2026-04-26 08:49 311K
20260426T06Z_MSC_RDPS_GeopotentialHeight_IsbL-0030_RLatLon0.09_PT036H.grib2 2026-04-26 08:49 312K
20260426T06Z_MSC_RDPS_GeopotentialHeight_IsbL-0050_RLatLon0.09_PT036H.grib2 2026-04-26 08:49 313K
20260426T06Z_MSC_RDPS_GeopotentialHeight_IsbL-0100_RLatLon0.09_PT036H.grib2 2026-04-26 08:49 289K
20260426T06Z_MSC_RDPS_GeopotentialHeight_IsbL-0150_RLatLon0.09_PT036H.grib2 2026-04-26 08:49 229K
20260426T06Z_MSC_RDPS_GeopotentialHeight_IsbL-0175_RLatLon0.09_PT036H.grib2 2026-04-26 08:49 232K
20260426T06Z_MSC_RDPS_GeopotentialHeight_IsbL-0200_RLatLon0.09_PT036H.grib2 2026-04-26 08:49 264K
20260426T06Z_MSC_RDPS_GeopotentialHeight_IsbL-0225_RLatLon0.09_PT036H.grib2 2026-04-26 08:49 267K
20260426T06Z_MSC_RDPS_GeopotentialHeight_IsbL-0250_RLatLon0.09_PT036H.grib2 2026-04-26 08:49 268K
20260426T06Z_MSC_RDPS_GeopotentialHeight_IsbL-0275_RLatLon0.09_PT036H.grib2 2026-04-26 08:49 268K
20260426T06Z_MSC_RDPS_GeopotentialHeight_IsbL-0300_RLatLon0.09_PT036H.grib2 2026-04-26 08:49 237K
20260426T06Z_MSC_RDPS_GeopotentialHeight_IsbL-0350_RLatLon0.09_PT036H.grib2 2026-04-26 08:49 232K
20260426T06Z_MSC_RDPS_GeopotentialHeight_IsbL-0400_RLatLon0.09_PT036H.grib2 2026-04-26 08:49 228K
20260426T06Z_MSC_RDPS_GeopotentialHeight_IsbL-0450_RLatLon0.09_PT036H.grib2 2026-04-26 08:49 297K
20260426T06Z_MSC_RDPS_GeopotentialHeight_IsbL-0500_RLatLon0.09_PT036H.grib2 2026-04-26 08:49 292K
20260426T06Z_MSC_RDPS_GeopotentialHeight_IsbL-0550_RLatLon0.09_PT036H.grib2 2026-04-26 08:49 288K
20260426T06Z_MSC_RDPS_GeopotentialHeight_IsbL-0600_RLatLon0.09_PT036H.grib2 2026-04-26 08:49 285K
20260426T06Z_MSC_RDPS_GeopotentialHeight_IsbL-0650_RLatLon0.09_PT036H.grib2 2026-04-26 08:49 283K
20260426T06Z_MSC_RDPS_GeopotentialHeight_IsbL-0700_RLatLon0.09_PT036H.grib2 2026-04-26 08:49 282K
20260426T06Z_MSC_RDPS_GeopotentialHeight_IsbL-0750_RLatLon0.09_PT036H.grib2 2026-04-26 08:49 256K
20260426T06Z_MSC_RDPS_GeopotentialHeight_IsbL-0800_RLatLon0.09_PT036H.grib2 2026-04-26 08:49 264K
20260426T06Z_MSC_RDPS_GeopotentialHeight_IsbL-0850_RLatLon0.09_PT036H.grib2 2026-04-26 08:49 272K
20260426T06Z_MSC_RDPS_GeopotentialHeight_IsbL-0875_RLatLon0.09_PT036H.grib2 2026-04-26 08:49 274K
20260426T06Z_MSC_RDPS_GeopotentialHeight_IsbL-0900_RLatLon0.09_PT036H.grib2 2026-04-26 08:49 278K
20260426T06Z_MSC_RDPS_GeopotentialHeight_IsbL-0925_RLatLon0.09_PT036H.grib2 2026-04-26 08:49 367K
20260426T06Z_MSC_RDPS_GeopotentialHeight_IsbL-0950_RLatLon0.09_PT036H.grib2 2026-04-26 08:49 372K
20260426T06Z_MSC_RDPS_GeopotentialHeight_IsbL-0970_RLatLon0.09_PT036H.grib2 2026-04-26 08:49 379K
20260426T06Z_MSC_RDPS_GeopotentialHeight_IsbL-0985_RLatLon0.09_PT036H.grib2 2026-04-26 08:49 388K
20260426T06Z_MSC_RDPS_GeopotentialHeight_IsbL-1000_RLatLon0.09_PT036H.grib2 2026-04-26 08:49 402K
20260426T06Z_MSC_RDPS_GeopotentialHeight_IsbL-1015_RLatLon0.09_PT036H.grib2 2026-04-26 08:49 418K
20260426T06Z_MSC_RDPS_Humidex_Sfc_RLatLon0.09_PT036H.grib2 2026-04-26 08:49 2.4M
20260426T06Z_MSC_RDPS_IcePellets-Accum12h_Sfc_RLatLon0.09_PT036H.grib2 2026-04-26 08:49 13K
20260426T06Z_MSC_RDPS_IcePellets-Accum1h_Sfc_RLatLon0.09_PT036H.grib2 2026-04-26 08:49 6.7K
20260426T06Z_MSC_RDPS_IcePellets-Accum24h_Sfc_RLatLon0.09_PT036H.grib2 2026-04-26 08:49 17K
20260426T06Z_MSC_RDPS_IcePellets-Accum3h_Sfc_RLatLon0.09_PT036H.grib2 2026-04-26 08:49 8.7K
20260426T06Z_MSC_RDPS_IcePellets-Accum6h_Sfc_RLatLon0.09_PT036H.grib2 2026-04-26 08:49 12K
20260426T06Z_MSC_RDPS_IcePellets-Accum_Sfc_RLatLon0.09_PT036H.grib2 2026-04-26 08:49 29K
20260426T06Z_MSC_RDPS_KIndex_Sfc_RLatLon0.09_PT036H.grib2 2026-04-26 08:49 2.5M
20260426T06Z_MSC_RDPS_LatentHeatNetFlux_Sfc_RLatLon0.09_PT036H.grib2 2026-04-26 08:49 316K
20260426T06Z_MSC_RDPS_LiftedIndex-MU-VT_IsbL-0500_RLatLon0.09_PT036H.grib2 2026-04-26 08:49 2.4M
20260426T06Z_MSC_RDPS_NetLongwaveRadiationFlux-Accum_Sfc_RLatLon0.09_PT036H.grib2 2026-04-26 08:49 513K
20260426T06Z_MSC_RDPS_NetShortwaveRadiationFlux-Accum_Sfc_RLatLon0.09_PT036H.grib2 2026-04-26 08:49 568K
20260426T06Z_MSC_RDPS_PlanetaryBoundaryLayerHeight_Sfc_RLatLon0.09_PT036H.grib2 2026-04-26 08:49 1.0M
20260426T06Z_MSC_RDPS_Precip-Accum12h_Sfc_RLatLon0.09_PT036H.grib2 2026-04-26 08:49 1.8M
20260426T06Z_MSC_RDPS_Precip-Accum1h_Sfc_RLatLon0.09_PT036H.grib2 2026-04-26 08:49 1.2M
20260426T06Z_MSC_RDPS_Precip-Accum24h_Sfc_RLatLon0.09_PT036H.grib2 2026-04-26 08:49 2.0M
20260426T06Z_MSC_RDPS_Precip-Accum3h_Sfc_RLatLon0.09_PT036H.grib2 2026-04-26 08:49 1.5M
20260426T06Z_MSC_RDPS_Precip-Accum6h_Sfc_RLatLon0.09_PT036H.grib2 2026-04-26 08:49 1.6M
20260426T06Z_MSC_RDPS_Precip-Accum_Sfc_RLatLon0.09_PT036H.grib2 2026-04-26 08:49 2.0M
20260426T06Z_MSC_RDPS_PrecipRate_Sfc_RLatLon0.09_PT036H.grib2 2026-04-26 08:49 194K
20260426T06Z_MSC_RDPS_PrecipType-Instant_Sfc_RLatLon0.09_PT036H.grib2 2026-04-26 08:49 588K
20260426T06Z_MSC_RDPS_Pressure-Trend3h_Sfc_RLatLon0.09_PT036H.grib2 2026-04-26 08:49 1.2M
20260426T06Z_MSC_RDPS_Pressure_MSL_RLatLon0.09_PT036H.grib2 2026-04-26 08:49 300K
20260426T06Z_MSC_RDPS_Pressure_PVU-1.5_RLatLon0.09_PT036H.grib2 2026-04-26 08:49 2.5M
20260426T06Z_MSC_RDPS_Pressure_PVU-1_RLatLon0.09_PT036H.grib2 2026-04-26 08:49 2.4M
20260426T06Z_MSC_RDPS_Pressure_PVU-2_RLatLon0.09_PT036H.grib2 2026-04-26 08:49 2.4M
20260426T06Z_MSC_RDPS_Pressure_Sfc_RLatLon0.09_PT036H.grib2 2026-04-26 08:49 500K
20260426T06Z_MSC_RDPS_RadiativeTemp_Sfc_RLatLon0.09_PT036H.grib2 2026-04-26 08:49 331K
20260426T06Z_MSC_RDPS_Rain-Accum12h_Sfc_RLatLon0.09_PT036H.grib2 2026-04-26 08:49 1.2M
20260426T06Z_MSC_RDPS_Rain-Accum1h_Sfc_RLatLon0.09_PT036H.grib2 2026-04-26 08:49 605K
20260426T06Z_MSC_RDPS_Rain-Accum24h_Sfc_RLatLon0.09_PT036H.grib2 2026-04-26 08:49 1.4M
20260426T06Z_MSC_RDPS_Rain-Accum3h_Sfc_RLatLon0.09_PT036H.grib2 2026-04-26 08:49 735K
20260426T06Z_MSC_RDPS_Rain-Accum6h_Sfc_RLatLon0.09_PT036H.grib2 2026-04-26 08:49 1.0M
20260426T06Z_MSC_RDPS_Rain-Accum_Sfc_RLatLon0.09_PT036H.grib2 2026-04-26 08:49 1.6M
20260426T06Z_MSC_RDPS_RelativeHumidity_AGL-2m_RLatLon0.09_PT036H.grib2 2026-04-26 08:49 1.0M
20260426T06Z_MSC_RDPS_RelativeHumidity_IsbL-0010_RLatLon0.09_PT036H.grib2 2026-04-26 08:49 631K
20260426T06Z_MSC_RDPS_RelativeHumidity_IsbL-0020_RLatLon0.09_PT036H.grib2 2026-04-26 08:49 654K
20260426T06Z_MSC_RDPS_RelativeHumidity_IsbL-0030_RLatLon0.09_PT036H.grib2 2026-04-26 08:49 541K
20260426T06Z_MSC_RDPS_RelativeHumidity_IsbL-0050_RLatLon0.09_PT036H.grib2 2026-04-26 08:49 378K
20260426T06Z_MSC_RDPS_RelativeHumidity_IsbL-0100_RLatLon0.09_PT036H.grib2 2026-04-26 08:49 271K
20260426T06Z_MSC_RDPS_RelativeHumidity_IsbL-0150_RLatLon0.09_PT036H.grib2 2026-04-26 08:49 399K
20260426T06Z_MSC_RDPS_RelativeHumidity_IsbL-0175_RLatLon0.09_PT036H.grib2 2026-04-26 08:49 475K
20260426T06Z_MSC_RDPS_RelativeHumidity_IsbL-0200_RLatLon0.09_PT036H.grib2 2026-04-26 08:49 551K
20260426T06Z_MSC_RDPS_RelativeHumidity_IsbL-0225_RLatLon0.09_PT036H.grib2 2026-04-26 08:49 614K
20260426T06Z_MSC_RDPS_RelativeHumidity_IsbL-0250_RLatLon0.09_PT036H.grib2 2026-04-26 08:49 678K
20260426T06Z_MSC_RDPS_RelativeHumidity_IsbL-0275_RLatLon0.09_PT036H.grib2 2026-04-26 08:49 707K
20260426T06Z_MSC_RDPS_RelativeHumidity_IsbL-0300_RLatLon0.09_PT036H.grib2 2026-04-26 08:49 748K
20260426T06Z_MSC_RDPS_RelativeHumidity_IsbL-0350_RLatLon0.09_PT036H.grib2 2026-04-26 08:49 765K
20260426T06Z_MSC_RDPS_RelativeHumidity_IsbL-0400_RLatLon0.09_PT036H.grib2 2026-04-26 08:49 785K
20260426T06Z_MSC_RDPS_RelativeHumidity_IsbL-0450_RLatLon0.09_PT036H.grib2 2026-04-26 08:49 802K
20260426T06Z_MSC_RDPS_RelativeHumidity_IsbL-0500_RLatLon0.09_PT036H.grib2 2026-04-26 08:49 810K
20260426T06Z_MSC_RDPS_RelativeHumidity_IsbL-0550_RLatLon0.09_PT036H.grib2 2026-04-26 08:49 827K
20260426T06Z_MSC_RDPS_RelativeHumidity_IsbL-0600_RLatLon0.09_PT036H.grib2 2026-04-26 08:49 847K
20260426T06Z_MSC_RDPS_RelativeHumidity_IsbL-0650_RLatLon0.09_PT036H.grib2 2026-04-26 08:49 864K
20260426T06Z_MSC_RDPS_RelativeHumidity_IsbL-0700_RLatLon0.09_PT036H.grib2 2026-04-26 08:49 902K
20260426T06Z_MSC_RDPS_RelativeHumidity_IsbL-0750_RLatLon0.09_PT036H.grib2 2026-04-26 08:49 954K
20260426T06Z_MSC_RDPS_RelativeHumidity_IsbL-0800_RLatLon0.09_PT036H.grib2 2026-04-26 08:49 1.0M
20260426T06Z_MSC_RDPS_RelativeHumidity_IsbL-0850_RLatLon0.09_PT036H.grib2 2026-04-26 08:49 1.1M
20260426T06Z_MSC_RDPS_RelativeHumidity_IsbL-0875_RLatLon0.09_PT036H.grib2 2026-04-26 08:49 1.1M
20260426T06Z_MSC_RDPS_RelativeHumidity_IsbL-0900_RLatLon0.09_PT036H.grib2 2026-04-26 08:49 1.1M
20260426T06Z_MSC_RDPS_RelativeHumidity_IsbL-0925_RLatLon0.09_PT036H.grib2 2026-04-26 08:49 1.1M
20260426T06Z_MSC_RDPS_RelativeHumidity_IsbL-0950_RLatLon0.09_PT036H.grib2 2026-04-26 08:49 1.1M
20260426T06Z_MSC_RDPS_RelativeHumidity_IsbL-0970_RLatLon0.09_PT036H.grib2 2026-04-26 08:49 1.1M
20260426T06Z_MSC_RDPS_RelativeHumidity_IsbL-0985_RLatLon0.09_PT036H.grib2 2026-04-26 08:49 1.0M
20260426T06Z_MSC_RDPS_RelativeHumidity_IsbL-1000_RLatLon0.09_PT036H.grib2 2026-04-26 08:49 1.0M
20260426T06Z_MSC_RDPS_RelativeHumidity_IsbL-1015_RLatLon0.09_PT036H.grib2 2026-04-26 08:49 1.0M
20260426T06Z_MSC_RDPS_Runoff-Accum_Sfc_RLatLon0.09_PT036H.grib2 2026-04-26 08:49 53K
20260426T06Z_MSC_RDPS_SWEATIndex_Sfc_RLatLon0.09_PT036H.grib2 2026-04-26 08:49 2.4M
20260426T06Z_MSC_RDPS_SeeingIndex_EAtm_RLatLon0.09_PT036H.grib2 2026-04-26 08:49 1.0M
20260426T06Z_MSC_RDPS_SensibleHeatNetFlux_Sfc_RLatLon0.09_PT036H.grib2 2026-04-26 08:49 375K
20260426T06Z_MSC_RDPS_ShowalterIndex_IsbL-0500_RLatLon0.09_PT036H.grib2 2026-04-26 08:49 2.6M
20260426T06Z_MSC_RDPS_SkyTransparencyIndex_EAtm_RLatLon0.09_PT036H.grib2 2026-04-26 08:49 740K
20260426T06Z_MSC_RDPS_Snow-Accum12h_Sfc_RLatLon0.09_PT036H.grib2 2026-04-26 08:49 605K
20260426T06Z_MSC_RDPS_Snow-Accum1h_Sfc_RLatLon0.09_PT036H.grib2 2026-04-26 08:49 427K
20260426T06Z_MSC_RDPS_Snow-Accum24h_Sfc_RLatLon0.09_PT036H.grib2 2026-04-26 08:49 726K
20260426T06Z_MSC_RDPS_Snow-Accum3h_Sfc_RLatLon0.09_PT036H.grib2 2026-04-26 08:49 419K
20260426T06Z_MSC_RDPS_Snow-Accum6h_Sfc_RLatLon0.09_PT036H.grib2 2026-04-26 08:49 553K
20260426T06Z_MSC_RDPS_Snow-Accum_Sfc_RLatLon0.09_PT036H.grib2 2026-04-26 08:49 780K
20260426T06Z_MSC_RDPS_SnowDensity_Sfc_RLatLon0.09_PT036H.grib2 2026-04-26 08:49 184K
20260426T06Z_MSC_RDPS_SnowDepth_Sfc_RLatLon0.09_PT036H.grib2 2026-04-26 08:49 729K
20260426T06Z_MSC_RDPS_SoilTemp_DBS-0to10cm_RLatLon0.09_PT036H.grib2 2026-04-26 08:49 230K
20260426T06Z_MSC_RDPS_SoilTemp_Sfc_RLatLon0.09_PT036H.grib2 2026-04-26 08:49 294K
20260426T06Z_MSC_RDPS_SoilVolumetricIceContent_Sfc_RLatLon0.09_PT036H.grib2 2026-04-26 08:49 168K
20260426T06Z_MSC_RDPS_SoilVolumetricWaterContent_DBS-0to10cm_RLatLon0.09_PT036H.grib2 2026-04-26 08:49 259K
20260426T06Z_MSC_RDPS_SoilVolumetricWaterContent_DBS-0to1cm_RLatLon0.09_PT036H.grib2 2026-04-26 08:49 339K
20260426T06Z_MSC_RDPS_SpecificHumidity_AGL-120m_RLatLon0.09_PT036H.grib2 2026-04-26 08:49 498K
20260426T06Z_MSC_RDPS_SpecificHumidity_AGL-2m_RLatLon0.09_PT036H.grib2 2026-04-26 08:49 670K
20260426T06Z_MSC_RDPS_SpecificHumidity_AGL-40m_RLatLon0.09_PT036H.grib2 2026-04-26 08:49 503K
20260426T06Z_MSC_RDPS_SpecificHumidity_AGL-80m_RLatLon0.09_PT036H.grib2 2026-04-26 08:49 499K
20260426T06Z_MSC_RDPS_SpecificHumidity_IsbL-0001_RLatLon0.09_PT036H.grib2 2026-04-26 08:49 348K
20260426T06Z_MSC_RDPS_SpecificHumidity_IsbL-0005_RLatLon0.09_PT036H.grib2 2026-04-26 08:49 359K
20260426T06Z_MSC_RDPS_SpecificHumidity_IsbL-0010_RLatLon0.09_PT036H.grib2 2026-04-26 08:49 397K
20260426T06Z_MSC_RDPS_SpecificHumidity_IsbL-0020_RLatLon0.09_PT036H.grib2 2026-04-26 08:49 388K
20260426T06Z_MSC_RDPS_SpecificHumidity_IsbL-0030_RLatLon0.09_PT036H.grib2 2026-04-26 08:49 479K
20260426T06Z_MSC_RDPS_SpecificHumidity_IsbL-0050_RLatLon0.09_PT036H.grib2 2026-04-26 08:49 472K
20260426T06Z_MSC_RDPS_SpecificHumidity_IsbL-0100_RLatLon0.09_PT036H.grib2 2026-04-26 08:49 415K
20260426T06Z_MSC_RDPS_SpecificHumidity_IsbL-0150_RLatLon0.09_PT036H.grib2 2026-04-26 08:49 370K
20260426T06Z_MSC_RDPS_SpecificHumidity_IsbL-0175_RLatLon0.09_PT036H.grib2 2026-04-26 08:49 461K
20260426T06Z_MSC_RDPS_SpecificHumidity_IsbL-0200_RLatLon0.09_PT036H.grib2 2026-04-26 08:49 454K
20260426T06Z_MSC_RDPS_SpecificHumidity_IsbL-0225_RLatLon0.09_PT036H.grib2 2026-04-26 08:49 557K
20260426T06Z_MSC_RDPS_SpecificHumidity_IsbL-0250_RLatLon0.09_PT036H.grib2 2026-04-26 08:49 548K
20260426T06Z_MSC_RDPS_SpecificHumidity_IsbL-0275_RLatLon0.09_PT036H.grib2 2026-04-26 08:49 464K
20260426T06Z_MSC_RDPS_SpecificHumidity_IsbL-0300_RLatLon0.09_PT036H.grib2 2026-04-26 08:49 530K
20260426T06Z_MSC_RDPS_SpecificHumidity_IsbL-0350_RLatLon0.09_PT036H.grib2 2026-04-26 08:49 518K
20260426T06Z_MSC_RDPS_SpecificHumidity_IsbL-0400_RLatLon0.09_PT036H.grib2 2026-04-26 08:49 505K
20260426T06Z_MSC_RDPS_SpecificHumidity_IsbL-0450_RLatLon0.09_PT036H.grib2 2026-04-26 08:49 567K
20260426T06Z_MSC_RDPS_SpecificHumidity_IsbL-0500_RLatLon0.09_PT036H.grib2 2026-04-26 08:49 505K
20260426T06Z_MSC_RDPS_SpecificHumidity_IsbL-0550_RLatLon0.09_PT036H.grib2 2026-04-26 08:49 559K
20260426T06Z_MSC_RDPS_SpecificHumidity_IsbL-0600_RLatLon0.09_PT036H.grib2 2026-04-26 08:49 627K
20260426T06Z_MSC_RDPS_SpecificHumidity_IsbL-0650_RLatLon0.09_PT036H.grib2 2026-04-26 08:49 547K
20260426T06Z_MSC_RDPS_SpecificHumidity_IsbL-0700_RLatLon0.09_PT036H.grib2 2026-04-26 08:49 597K
20260426T06Z_MSC_RDPS_SpecificHumidity_IsbL-0750_RLatLon0.09_PT036H.grib2 2026-04-26 08:49 661K
20260426T06Z_MSC_RDPS_SpecificHumidity_IsbL-0800_RLatLon0.09_PT036H.grib2 2026-04-26 08:49 747K
20260426T06Z_MSC_RDPS_SpecificHumidity_IsbL-0850_RLatLon0.09_PT036H.grib2 2026-04-26 08:49 821K
20260426T06Z_MSC_RDPS_SpecificHumidity_IsbL-0875_RLatLon0.09_PT036H.grib2 2026-04-26 08:49 841K
20260426T06Z_MSC_RDPS_SpecificHumidity_IsbL-0900_RLatLon0.09_PT036H.grib2 2026-04-26 08:49 849K
20260426T06Z_MSC_RDPS_SpecificHumidity_IsbL-0925_RLatLon0.09_PT036H.grib2 2026-04-26 08:49 710K
20260426T06Z_MSC_RDPS_SpecificHumidity_IsbL-0950_RLatLon0.09_PT036H.grib2 2026-04-26 08:49 709K
20260426T06Z_MSC_RDPS_SpecificHumidity_IsbL-0970_RLatLon0.09_PT036H.grib2 2026-04-26 08:49 701K
20260426T06Z_MSC_RDPS_SpecificHumidity_IsbL-0985_RLatLon0.09_PT036H.grib2 2026-04-26 08:49 696K
20260426T06Z_MSC_RDPS_SpecificHumidity_IsbL-1000_RLatLon0.09_PT036H.grib2 2026-04-26 08:49 690K
20260426T06Z_MSC_RDPS_SpecificHumidity_IsbL-1015_RLatLon0.09_PT036H.grib2 2026-04-26 08:49 683K
20260426T06Z_MSC_RDPS_SpecificHumidity_Sfc_RLatLon0.09_PT036H.grib2 2026-04-26 08:49 344K
20260426T06Z_MSC_RDPS_StormRelativeHelicity_EtaL-10000_RLatLon0.09_PT036H.grib2 2026-04-26 08:49 1.1M
20260426T06Z_MSC_RDPS_StormSeverityIndex_EtaL-10000_RLatLon0.09_PT036H.grib2 2026-04-26 08:49 1.1M
20260426T06Z_MSC_RDPS_Thickness_IsbL-0850to0700_RLatLon0.09_PT036H.grib2 2026-04-26 08:49 179K
20260426T06Z_MSC_RDPS_Thickness_IsbL-1000to0500_RLatLon0.09_PT036H.grib2 2026-04-26 08:49 202K
20260426T06Z_MSC_RDPS_Thickness_IsbL-1000to0850_RLatLon0.09_PT036H.grib2 2026-04-26 08:49 190K
20260426T06Z_MSC_RDPS_TotalCloudCover_Sfc_RLatLon0.09_PT036H.grib2 2026-04-26 08:49 666K
20260426T06Z_MSC_RDPS_TotalTotalsIndex_Sfc_RLatLon0.09_PT036H.grib2 2026-04-26 08:49 2.4M
20260426T06Z_MSC_RDPS_UVIndex-ClearSky-Max24h_Sfc_RLatLon0.09_PT036H.grib2 2026-04-26 08:49 294K
20260426T06Z_MSC_RDPS_UVIndex-ClearSky_Sfc_RLatLon0.09_PT036H.grib2 2026-04-26 08:49 229K
20260426T06Z_MSC_RDPS_UVIndex-Max24h_Sfc_RLatLon0.09_PT036H.grib2 2026-04-26 08:49 658K
20260426T06Z_MSC_RDPS_UVIndex_Sfc_RLatLon0.09_PT036H.grib2 2026-04-26 08:49 527K
20260426T06Z_MSC_RDPS_UpwardLongwaveRadiationFlux_NTAtm_RLatLon0.09_PT036H.grib2 2026-04-26 08:49 496K
20260426T06Z_MSC_RDPS_UpwardShortwaveRadiationFlux_NTAtm_RLatLon0.09_PT036H.grib2 2026-04-26 08:49 560K
20260426T06Z_MSC_RDPS_VerticalVelocity_IsbL-0250_RLatLon0.09_PT036H.grib2 2026-04-26 08:49 541K
20260426T06Z_MSC_RDPS_VerticalVelocity_IsbL-0500_RLatLon0.09_PT036H.grib2 2026-04-26 08:49 535K
20260426T06Z_MSC_RDPS_VerticalVelocity_IsbL-0700_RLatLon0.09_PT036H.grib2 2026-04-26 08:49 593K
20260426T06Z_MSC_RDPS_VerticalVelocity_IsbL-0850_RLatLon0.09_PT036H.grib2 2026-04-26 08:49 706K
20260426T06Z_MSC_RDPS_VerticalWindShear_EtaL-6500_RLatLon0.09_PT036H.grib2 2026-04-26 08:49 1.2M
20260426T06Z_MSC_RDPS_WindChill_Sfc_RLatLon0.09_PT036H.grib2 2026-04-26 08:49 1.1M
20260426T06Z_MSC_RDPS_WindDir_AGL-10m_RLatLon0.09_PT036H.grib2 2026-04-26 08:49 1.0M
20260426T06Z_MSC_RDPS_WindDir_AGL-120m_RLatLon0.09_PT036H.grib2 2026-04-26 08:49 627K
20260426T06Z_MSC_RDPS_WindDir_AGL-40m_RLatLon0.09_PT036H.grib2 2026-04-26 08:49 647K
20260426T06Z_MSC_RDPS_WindDir_AGL-80m_RLatLon0.09_PT036H.grib2 2026-04-26 08:49 636K
20260426T06Z_MSC_RDPS_WindDir_IsbL-0001_RLatLon0.09_PT036H.grib2 2026-04-26 08:49 275K
20260426T06Z_MSC_RDPS_WindDir_IsbL-0005_RLatLon0.09_PT036H.grib2 2026-04-26 08:49 352K
20260426T06Z_MSC_RDPS_WindDir_IsbL-0010_RLatLon0.09_PT036H.grib2 2026-04-26 08:49 376K
20260426T06Z_MSC_RDPS_WindDir_IsbL-0020_RLatLon0.09_PT036H.grib2 2026-04-26 08:49 409K
20260426T06Z_MSC_RDPS_WindDir_IsbL-0030_RLatLon0.09_PT036H.grib2 2026-04-26 08:49 409K
20260426T06Z_MSC_RDPS_WindDir_IsbL-0050_RLatLon0.09_PT036H.grib2 2026-04-26 08:49 418K
20260426T06Z_MSC_RDPS_WindDir_IsbL-0100_RLatLon0.09_PT036H.grib2 2026-04-26 08:49 407K
20260426T06Z_MSC_RDPS_WindDir_IsbL-0150_RLatLon0.09_PT036H.grib2 2026-04-26 08:49 403K
20260426T06Z_MSC_RDPS_WindDir_IsbL-0175_RLatLon0.09_PT036H.grib2 2026-04-26 08:49 421K
20260426T06Z_MSC_RDPS_WindDir_IsbL-0200_RLatLon0.09_PT036H.grib2 2026-04-26 08:49 442K
20260426T06Z_MSC_RDPS_WindDir_IsbL-0225_RLatLon0.09_PT036H.grib2 2026-04-26 08:49 447K
20260426T06Z_MSC_RDPS_WindDir_IsbL-0250_RLatLon0.09_PT036H.grib2 2026-04-26 08:49 445K
20260426T06Z_MSC_RDPS_WindDir_IsbL-0275_RLatLon0.09_PT036H.grib2 2026-04-26 08:49 466K
20260426T06Z_MSC_RDPS_WindDir_IsbL-0300_RLatLon0.09_PT036H.grib2 2026-04-26 08:49 463K
20260426T06Z_MSC_RDPS_WindDir_IsbL-0350_RLatLon0.09_PT036H.grib2 2026-04-26 08:49 486K
20260426T06Z_MSC_RDPS_WindDir_IsbL-0400_RLatLon0.09_PT036H.grib2 2026-04-26 08:49 502K
20260426T06Z_MSC_RDPS_WindDir_IsbL-0450_RLatLon0.09_PT036H.grib2 2026-04-26 08:49 516K
20260426T06Z_MSC_RDPS_WindDir_IsbL-0500_RLatLon0.09_PT036H.grib2 2026-04-26 08:49 529K
20260426T06Z_MSC_RDPS_WindDir_IsbL-0550_RLatLon0.09_PT036H.grib2 2026-04-26 08:49 543K
20260426T06Z_MSC_RDPS_WindDir_IsbL-0600_RLatLon0.09_PT036H.grib2 2026-04-26 08:49 574K
20260426T06Z_MSC_RDPS_WindDir_IsbL-0650_RLatLon0.09_PT036H.grib2 2026-04-26 08:49 623K
20260426T06Z_MSC_RDPS_WindDir_IsbL-0700_RLatLon0.09_PT036H.grib2 2026-04-26 08:49 670K
20260426T06Z_MSC_RDPS_WindDir_IsbL-0750_RLatLon0.09_PT036H.grib2 2026-04-26 08:49 722K
20260426T06Z_MSC_RDPS_WindDir_IsbL-0800_RLatLon0.09_PT036H.grib2 2026-04-26 08:49 796K
20260426T06Z_MSC_RDPS_WindDir_IsbL-0850_RLatLon0.09_PT036H.grib2 2026-04-26 08:49 871K
20260426T06Z_MSC_RDPS_WindDir_IsbL-0875_RLatLon0.09_PT036H.grib2 2026-04-26 08:49 897K
20260426T06Z_MSC_RDPS_WindDir_IsbL-0900_RLatLon0.09_PT036H.grib2 2026-04-26 08:49 914K
20260426T06Z_MSC_RDPS_WindDir_IsbL-0925_RLatLon0.09_PT036H.grib2 2026-04-26 08:49 924K
20260426T06Z_MSC_RDPS_WindDir_IsbL-0950_RLatLon0.09_PT036H.grib2 2026-04-26 08:49 925K
20260426T06Z_MSC_RDPS_WindDir_IsbL-0970_RLatLon0.09_PT036H.grib2 2026-04-26 08:49 930K
20260426T06Z_MSC_RDPS_WindDir_IsbL-0985_RLatLon0.09_PT036H.grib2 2026-04-26 08:49 941K
20260426T06Z_MSC_RDPS_WindDir_IsbL-1000_RLatLon0.09_PT036H.grib2 2026-04-26 08:49 955K
20260426T06Z_MSC_RDPS_WindDir_IsbL-1015_RLatLon0.09_PT036H.grib2 2026-04-26 08:49 971K
20260426T06Z_MSC_RDPS_WindGust-Max_AGL-10m_RLatLon0.09_PT036H.grib2 2026-04-26 08:49 950K
20260426T06Z_MSC_RDPS_WindGust-Min_AGL-10m_RLatLon0.09_PT036H.grib2 2026-04-26 08:49 935K
20260426T06Z_MSC_RDPS_WindGust_AGL-10m_RLatLon0.09_PT036H.grib2 2026-04-26 08:49 944K
20260426T06Z_MSC_RDPS_WindSpeed_AGL-10m_RLatLon0.09_PT036H.grib2 2026-04-26 08:49 852K
20260426T06Z_MSC_RDPS_WindSpeed_AGL-120m_RLatLon0.09_PT036H.grib2 2026-04-26 08:49 550K
20260426T06Z_MSC_RDPS_WindSpeed_AGL-40m_RLatLon0.09_PT036H.grib2 2026-04-26 08:49 556K
20260426T06Z_MSC_RDPS_WindSpeed_AGL-80m_RLatLon0.09_PT036H.grib2 2026-04-26 08:49 552K
20260426T06Z_MSC_RDPS_WindSpeed_IsbL-0001_RLatLon0.09_PT036H.grib2 2026-04-26 08:49 252K
20260426T06Z_MSC_RDPS_WindSpeed_IsbL-0005_RLatLon0.09_PT036H.grib2 2026-04-26 08:49 299K
20260426T06Z_MSC_RDPS_WindSpeed_IsbL-0010_RLatLon0.09_PT036H.grib2 2026-04-26 08:49 311K
20260426T06Z_MSC_RDPS_WindSpeed_IsbL-0020_RLatLon0.09_PT036H.grib2 2026-04-26 08:49 328K
20260426T06Z_MSC_RDPS_WindSpeed_IsbL-0030_RLatLon0.09_PT036H.grib2 2026-04-26 08:49 323K
20260426T06Z_MSC_RDPS_WindSpeed_IsbL-0050_RLatLon0.09_PT036H.grib2 2026-04-26 08:49 460K
20260426T06Z_MSC_RDPS_WindSpeed_IsbL-0100_RLatLon0.09_PT036H.grib2 2026-04-26 08:49 470K
20260426T06Z_MSC_RDPS_WindSpeed_IsbL-0150_RLatLon0.09_PT036H.grib2 2026-04-26 08:49 372K
20260426T06Z_MSC_RDPS_WindSpeed_IsbL-0175_RLatLon0.09_PT036H.grib2 2026-04-26 08:49 400K
20260426T06Z_MSC_RDPS_WindSpeed_IsbL-0200_RLatLon0.09_PT036H.grib2 2026-04-26 08:49 436K
20260426T06Z_MSC_RDPS_WindSpeed_IsbL-0225_RLatLon0.09_PT036H.grib2 2026-04-26 08:49 443K
20260426T06Z_MSC_RDPS_WindSpeed_IsbL-0250_RLatLon0.09_PT036H.grib2 2026-04-26 08:49 446K
20260426T06Z_MSC_RDPS_WindSpeed_IsbL-0275_RLatLon0.09_PT036H.grib2 2026-04-26 08:49 463K
20260426T06Z_MSC_RDPS_WindSpeed_IsbL-0300_RLatLon0.09_PT036H.grib2 2026-04-26 08:49 460K
20260426T06Z_MSC_RDPS_WindSpeed_IsbL-0350_RLatLon0.09_PT036H.grib2 2026-04-26 08:49 469K
20260426T06Z_MSC_RDPS_WindSpeed_IsbL-0400_RLatLon0.09_PT036H.grib2 2026-04-26 08:49 455K
20260426T06Z_MSC_RDPS_WindSpeed_IsbL-0450_RLatLon0.09_PT036H.grib2 2026-04-26 08:49 454K
20260426T06Z_MSC_RDPS_WindSpeed_IsbL-0500_RLatLon0.09_PT036H.grib2 2026-04-26 08:49 453K
20260426T06Z_MSC_RDPS_WindSpeed_IsbL-0550_RLatLon0.09_PT036H.grib2 2026-04-26 08:49 454K
20260426T06Z_MSC_RDPS_WindSpeed_IsbL-0600_RLatLon0.09_PT036H.grib2 2026-04-26 08:49 583K
20260426T06Z_MSC_RDPS_WindSpeed_IsbL-0650_RLatLon0.09_PT036H.grib2 2026-04-26 08:49 608K
20260426T06Z_MSC_RDPS_WindSpeed_IsbL-0700_RLatLon0.09_PT036H.grib2 2026-04-26 08:49 636K
20260426T06Z_MSC_RDPS_WindSpeed_IsbL-0750_RLatLon0.09_PT036H.grib2 2026-04-26 08:49 707K
20260426T06Z_MSC_RDPS_WindSpeed_IsbL-0800_RLatLon0.09_PT036H.grib2 2026-04-26 08:49 760K
20260426T06Z_MSC_RDPS_WindSpeed_IsbL-0850_RLatLon0.09_PT036H.grib2 2026-04-26 08:49 774K
20260426T06Z_MSC_RDPS_WindSpeed_IsbL-0875_RLatLon0.09_PT036H.grib2 2026-04-26 08:49 794K
20260426T06Z_MSC_RDPS_WindSpeed_IsbL-0900_RLatLon0.09_PT036H.grib2 2026-04-26 08:49 806K
20260426T06Z_MSC_RDPS_WindSpeed_IsbL-0925_RLatLon0.09_PT036H.grib2 2026-04-26 08:49 861K
20260426T06Z_MSC_RDPS_WindSpeed_IsbL-0950_RLatLon0.09_PT036H.grib2 2026-04-26 08:49 859K
20260426T06Z_MSC_RDPS_WindSpeed_IsbL-0970_RLatLon0.09_PT036H.grib2 2026-04-26 08:49 860K
20260426T06Z_MSC_RDPS_WindSpeed_IsbL-0985_RLatLon0.09_PT036H.grib2 2026-04-26 08:49 862K
20260426T06Z_MSC_RDPS_WindSpeed_IsbL-1000_RLatLon0.09_PT036H.grib2 2026-04-26 08:49 857K
20260426T06Z_MSC_RDPS_WindSpeed_IsbL-1015_RLatLon0.09_PT036H.grib2 2026-04-26 08:49 850K
20260426T06Z_MSC_RDPS_WindU_AGL-10m_RLatLon0.09_PT036H.grib2 2026-04-26 08:49 440K
20260426T06Z_MSC_RDPS_WindU_AGL-120m_RLatLon0.09_PT036H.grib2 2026-04-26 08:49 420K
20260426T06Z_MSC_RDPS_WindU_AGL-40m_RLatLon0.09_PT036H.grib2 2026-04-26 08:49 425K
20260426T06Z_MSC_RDPS_WindU_AGL-80m_RLatLon0.09_PT036H.grib2 2026-04-26 08:49 422K
20260426T06Z_MSC_RDPS_WindU_IsbL-0001_RLatLon0.09_PT036H.grib2 2026-04-26 08:49 294K
20260426T06Z_MSC_RDPS_WindU_IsbL-0005_RLatLon0.09_PT036H.grib2 2026-04-26 08:49 334K
20260426T06Z_MSC_RDPS_WindU_IsbL-0010_RLatLon0.09_PT036H.grib2 2026-04-26 08:49 301K
20260426T06Z_MSC_RDPS_WindU_IsbL-0020_RLatLon0.09_PT036H.grib2 2026-04-26 08:49 357K
20260426T06Z_MSC_RDPS_WindU_IsbL-0030_RLatLon0.09_PT036H.grib2 2026-04-26 08:49 355K
20260426T06Z_MSC_RDPS_WindU_IsbL-0050_RLatLon0.09_PT036H.grib2 2026-04-26 08:49 350K
20260426T06Z_MSC_RDPS_WindU_IsbL-0100_RLatLon0.09_PT036H.grib2 2026-04-26 08:49 428K
20260426T06Z_MSC_RDPS_WindU_IsbL-0150_RLatLon0.09_PT036H.grib2 2026-04-26 08:49 389K
20260426T06Z_MSC_RDPS_WindU_IsbL-0175_RLatLon0.09_PT036H.grib2 2026-04-26 08:49 414K
20260426T06Z_MSC_RDPS_WindU_IsbL-0200_RLatLon0.09_PT036H.grib2 2026-04-26 08:49 429K
20260426T06Z_MSC_RDPS_WindU_IsbL-0225_RLatLon0.09_PT036H.grib2 2026-04-26 08:49 337K
20260426T06Z_MSC_RDPS_WindU_IsbL-0250_RLatLon0.09_PT036H.grib2 2026-04-26 08:49 339K
20260426T06Z_MSC_RDPS_WindU_IsbL-0275_RLatLon0.09_PT036H.grib2 2026-04-26 08:49 352K
20260426T06Z_MSC_RDPS_WindU_IsbL-0300_RLatLon0.09_PT036H.grib2 2026-04-26 08:49 347K
20260426T06Z_MSC_RDPS_WindU_IsbL-0350_RLatLon0.09_PT036H.grib2 2026-04-26 08:49 354K
20260426T06Z_MSC_RDPS_WindU_IsbL-0400_RLatLon0.09_PT036H.grib2 2026-04-26 08:49 458K
20260426T06Z_MSC_RDPS_WindU_IsbL-0450_RLatLon0.09_PT036H.grib2 2026-04-26 08:49 461K
20260426T06Z_MSC_RDPS_WindU_IsbL-0500_RLatLon0.09_PT036H.grib2 2026-04-26 08:49 460K
20260426T06Z_MSC_RDPS_WindU_IsbL-0550_RLatLon0.09_PT036H.grib2 2026-04-26 08:49 462K
20260426T06Z_MSC_RDPS_WindU_IsbL-0600_RLatLon0.09_PT036H.grib2 2026-04-26 08:49 472K
20260426T06Z_MSC_RDPS_WindU_IsbL-0650_RLatLon0.09_PT036H.grib2 2026-04-26 08:49 493K
20260426T06Z_MSC_RDPS_WindU_IsbL-0700_RLatLon0.09_PT036H.grib2 2026-04-26 08:49 517K
20260426T06Z_MSC_RDPS_WindU_IsbL-0750_RLatLon0.09_PT036H.grib2 2026-04-26 08:49 542K
20260426T06Z_MSC_RDPS_WindU_IsbL-0800_RLatLon0.09_PT036H.grib2 2026-04-26 08:49 575K
20260426T06Z_MSC_RDPS_WindU_IsbL-0850_RLatLon0.09_PT036H.grib2 2026-04-26 08:49 637K
20260426T06Z_MSC_RDPS_WindU_IsbL-0875_RLatLon0.09_PT036H.grib2 2026-04-26 08:49 653K
20260426T06Z_MSC_RDPS_WindU_IsbL-0900_RLatLon0.09_PT036H.grib2 2026-04-26 08:49 654K
20260426T06Z_MSC_RDPS_WindU_IsbL-0925_RLatLon0.09_PT036H.grib2 2026-04-26 08:49 659K
20260426T06Z_MSC_RDPS_WindU_IsbL-0950_RLatLon0.09_PT036H.grib2 2026-04-26 08:49 656K
20260426T06Z_MSC_RDPS_WindU_IsbL-0970_RLatLon0.09_PT036H.grib2 2026-04-26 08:49 655K
20260426T06Z_MSC_RDPS_WindU_IsbL-0985_RLatLon0.09_PT036H.grib2 2026-04-26 08:49 656K
20260426T06Z_MSC_RDPS_WindU_IsbL-1000_RLatLon0.09_PT036H.grib2 2026-04-26 08:49 795K
20260426T06Z_MSC_RDPS_WindU_IsbL-1015_RLatLon0.09_PT036H.grib2 2026-04-26 08:49 792K
20260426T06Z_MSC_RDPS_WindV_AGL-10m_RLatLon0.09_PT036H.grib2 2026-04-26 08:49 439K
20260426T06Z_MSC_RDPS_WindV_AGL-120m_RLatLon0.09_PT036H.grib2 2026-04-26 08:49 419K
20260426T06Z_MSC_RDPS_WindV_AGL-40m_RLatLon0.09_PT036H.grib2 2026-04-26 08:49 423K
20260426T06Z_MSC_RDPS_WindV_AGL-80m_RLatLon0.09_PT036H.grib2 2026-04-26 08:49 421K
20260426T06Z_MSC_RDPS_WindV_IsbL-0001_RLatLon0.09_PT036H.grib2 2026-04-26 08:49 267K
20260426T06Z_MSC_RDPS_WindV_IsbL-0005_RLatLon0.09_PT036H.grib2 2026-04-26 08:49 332K
20260426T06Z_MSC_RDPS_WindV_IsbL-0010_RLatLon0.09_PT036H.grib2 2026-04-26 08:49 302K
20260426T06Z_MSC_RDPS_WindV_IsbL-0020_RLatLon0.09_PT036H.grib2 2026-04-26 08:49 319K
20260426T06Z_MSC_RDPS_WindV_IsbL-0030_RLatLon0.09_PT036H.grib2 2026-04-26 08:49 318K
20260426T06Z_MSC_RDPS_WindV_IsbL-0050_RLatLon0.09_PT036H.grib2 2026-04-26 08:49 348K
20260426T06Z_MSC_RDPS_WindV_IsbL-0100_RLatLon0.09_PT036H.grib2 2026-04-26 08:49 327K
20260426T06Z_MSC_RDPS_WindV_IsbL-0150_RLatLon0.09_PT036H.grib2 2026-04-26 08:49 387K
20260426T06Z_MSC_RDPS_WindV_IsbL-0175_RLatLon0.09_PT036H.grib2 2026-04-26 08:49 320K
20260426T06Z_MSC_RDPS_WindV_IsbL-0200_RLatLon0.09_PT036H.grib2 2026-04-26 08:49 332K
20260426T06Z_MSC_RDPS_WindV_IsbL-0225_RLatLon0.09_PT036H.grib2 2026-04-26 08:49 335K
20260426T06Z_MSC_RDPS_WindV_IsbL-0250_RLatLon0.09_PT036H.grib2 2026-04-26 08:49 336K
20260426T06Z_MSC_RDPS_WindV_IsbL-0275_RLatLon0.09_PT036H.grib2 2026-04-26 08:49 374K
20260426T06Z_MSC_RDPS_WindV_IsbL-0300_RLatLon0.09_PT036H.grib2 2026-04-26 08:49 370K
20260426T06Z_MSC_RDPS_WindV_IsbL-0350_RLatLon0.09_PT036H.grib2 2026-04-26 08:49 351K
20260426T06Z_MSC_RDPS_WindV_IsbL-0400_RLatLon0.09_PT036H.grib2 2026-04-26 08:49 355K
20260426T06Z_MSC_RDPS_WindV_IsbL-0450_RLatLon0.09_PT036H.grib2 2026-04-26 08:49 454K
20260426T06Z_MSC_RDPS_WindV_IsbL-0500_RLatLon0.09_PT036H.grib2 2026-04-26 08:49 454K
20260426T06Z_MSC_RDPS_WindV_IsbL-0550_RLatLon0.09_PT036H.grib2 2026-04-26 08:49 456K
20260426T06Z_MSC_RDPS_WindV_IsbL-0600_RLatLon0.09_PT036H.grib2 2026-04-26 08:49 467K
20260426T06Z_MSC_RDPS_WindV_IsbL-0650_RLatLon0.09_PT036H.grib2 2026-04-26 08:49 489K
20260426T06Z_MSC_RDPS_WindV_IsbL-0700_RLatLon0.09_PT036H.grib2 2026-04-26 08:49 512K
20260426T06Z_MSC_RDPS_WindV_IsbL-0750_RLatLon0.09_PT036H.grib2 2026-04-26 08:49 536K
20260426T06Z_MSC_RDPS_WindV_IsbL-0800_RLatLon0.09_PT036H.grib2 2026-04-26 08:49 569K
20260426T06Z_MSC_RDPS_WindV_IsbL-0850_RLatLon0.09_PT036H.grib2 2026-04-26 08:49 622K
20260426T06Z_MSC_RDPS_WindV_IsbL-0875_RLatLon0.09_PT036H.grib2 2026-04-26 08:49 641K
20260426T06Z_MSC_RDPS_WindV_IsbL-0900_RLatLon0.09_PT036H.grib2 2026-04-26 08:49 651K
20260426T06Z_MSC_RDPS_WindV_IsbL-0925_RLatLon0.09_PT036H.grib2 2026-04-26 08:49 657K
20260426T06Z_MSC_RDPS_WindV_IsbL-0950_RLatLon0.09_PT036H.grib2 2026-04-26 08:49 654K
20260426T06Z_MSC_RDPS_WindV_IsbL-0970_RLatLon0.09_PT036H.grib2 2026-04-26 08:49 654K
20260426T06Z_MSC_RDPS_WindV_IsbL-0985_RLatLon0.09_PT036H.grib2 2026-04-26 08:49 655K
20260426T06Z_MSC_RDPS_WindV_IsbL-1000_RLatLon0.09_PT036H.grib2 2026-04-26 08:49 794K
20260426T06Z_MSC_RDPS_WindV_IsbL-1015_RLatLon0.09_PT036H.grib2 2026-04-26 08:49 788K